Powrót do katalogu

ALSAT 3A

AktywnyNaukaSSO
NORAD 67474·PAYLOAD·🇩🇿 Algeria

Wystrzelony Jan 15, 2026 z Jiuquan Satellite Launch Center

Loading…

Następne Przeloty (najbliższe 24 godziny)

TLE

ŚwieżeSource: Space-Track

Epoka: Sep 14, 2026, 12:33 UTC

1 67474U 26009A   26257.52316304  .00004393  00000-0  18603-3 0  9991
2 67474  97.4471 330.7640 0011021 149.2130 210.9756 15.23637991 36870

Śledź ALSAT 3A w czasie rzeczywistym z AllMySat

Download on the App Store